When you browse on this site, cookies collect data to enhance your experience and personalize the content and advertising you see.
Visit our Privacy Policy to learn more. By continuing to use the site, you agree to this use of cookies and data.
  • în România
  • Lista ţărilor
  • Pe 7 zile
  • Temperatura apei
  • Meteo pe hartă
  • Widget-uri
  • user-avatar
    Intrare

    Meteo pe oră la Shkoder

    Astăzi, 15 Noiembrie, Vineri

    Timp Temperatura Precipitaţii Vânt Presiune Umiditate
    00:00 +13°C° 0 mm 1 m/s 737 mmHg 85%
    01:00 +13°C° 0 mm 1 m/s 737 mmHg 85%
    02:00 +12°C° 0 mm 1 m/s 737 mmHg 83%
    03:00 +12°C° 0 mm 1 m/s 737 mmHg 82%
    04:00 +12°C° 0 mm 1 m/s 737 mmHg 80%
    05:00 +12°C° 0 mm 1 m/s 737 mmHg 79%
    06:00 +12°C° 0 mm 1 m/s 738 mmHg 79%
    07:00 +13°C° 0 mm 2 m/s 738 mmHg 79%
    08:00 +14°C° 0 mm 1 m/s 738 mmHg 75%
    09:00 +15°C° 0 mm 1 m/s 738 mmHg 71%
    10:00 +16°C° 0 mm 1 m/s 738 mmHg 67%
    11:00 +18°C° 0 mm 1 m/s 738 mmHg 65%
    12:00 +19°C° 0 mm 1 m/s 738 mmHg 63%
    13:00 +19°C° 0 mm 1 m/s 738 mmHg 61%
    14:00 +19°C° 0 mm 1 m/s 738 mmHg 64%
    15:00 +18°C° 0 mm 1 m/s 738 mmHg 68%
    16:00 +16°C° 0 mm 1 m/s 739 mmHg 71%
    17:00 +16°C° 0 mm 1 m/s 739 mmHg 72%
    18:00 +15°C° 0 mm 1 m/s 739 mmHg 74%
    19:00 +15°C° 0 mm 1 m/s 739 mmHg 75%
    20:00 +15°C° 0.1 mm 1 m/s 740 mmHg 77%
    21:00 +15°C° 0.1 mm 1 m/s 740 mmHg 79%
    22:00 +15°C° 0.1 mm 1 m/s 740 mmHg 80%
    23:00 +14°C° 0.1 mm 1 m/s 740 mmHg 81%

    Mâine, 16 Noiembrie, Sâmbătă

    Timp Temperatura Precipitaţii Vânt Presiune Umiditate
    00:00 +14°C° 0.1 mm 1 m/s 741 mmHg 81%
    01:00 +14°C° 0.1 mm 2 m/s 741 mmHg 82%
    02:00 +14°C° 0 mm 1 m/s 741 mmHg 82%
    03:00 +14°C° 0 mm 1 m/s 741 mmHg 82%
    04:00 +14°C° 0 mm 1 m/s 741 mmHg 81%
    05:00 +14°C° 0.1 mm 1 m/s 741 mmHg 82%
    06:00 +14°C° 0.1 mm 1 m/s 741 mmHg 83%
    07:00 +14°C° 0.1 mm 1 m/s 741 mmHg 83%
    08:00 +15°C° 0 mm 1 m/s 741 mmHg 78%
    09:00 +18°C° 0 mm 1 m/s 741 mmHg 73%
    10:00 +19°C° 0 mm 1 m/s 742 mmHg 67%
    11:00 +19°C° 0 mm 1 m/s 741 mmHg 65%
    12:00 +20°C° 0 mm 1 m/s 741 mmHg 62%
    13:00 +20°C° 0 mm 1 m/s 741 mmHg 59%
    14:00 +19°C° 0 mm 1 m/s 740 mmHg 63%
    15:00 +18°C° 0 mm 1 m/s 740 mmHg 67%
    16:00 +16°C° 0 mm 1 m/s 740 mmHg 70%
    17:00 +16°C° 0 mm 1 m/s 740 mmHg 72%
    18:00 +15°C° 0 mm 1 m/s 740 mmHg 74%
    19:00 +15°C° 0 mm 1 m/s 740 mmHg 77%
    20:00 +15°C° 0 mm 1 m/s 740 mmHg 77%
    21:00 +14°C° 0 mm 1 m/s 740 mmHg 77%
    22:00 +14°C° 0 mm 1 m/s 740 mmHg 77%
    23:00 +14°C° 0 mm 1 m/s 740 mmHg 77%

    Poimâine, 17 Noiembrie, Duminică

    Timp Temperatura Precipitaţii Vânt Presiune Umiditate
    00:00 +13°C° 0 mm 2 m/s 740 mmHg 76%
    01:00 +13°C° 0 mm 2 m/s 740 mmHg 76%
    02:00 +13°C° 0 mm 2 m/s 739 mmHg 75%
    03:00 +13°C° 0 mm 2 m/s 739 mmHg 74%
    04:00 +13°C° 0 mm 2 m/s 739 mmHg 73%
    05:00 +13°C° 0 mm 2 m/s 739 mmHg 73%
    06:00 +13°C° 0 mm 2 m/s 739 mmHg 73%
    07:00 +13°C° 0 mm 2 m/s 739 mmHg 74%
    08:00 +14°C° 0 mm 2 m/s 739 mmHg 72%
    09:00 +15°C° 0 mm 2 m/s 738 mmHg 71%
    10:00 +16°C° 0 mm 2 m/s 738 mmHg 69%
    11:00 +16°C° 0 mm 2 m/s 738 mmHg 68%
    12:00 +17°C° 0 mm 2 m/s 738 mmHg 66%
    13:00 +19°C° 0 mm 1 m/s 737 mmHg 65%
    14:00 +18°C° 0 mm 1 m/s 737 mmHg 68%
    15:00 +16°C° 0 mm 1 m/s 737 mmHg 71%
    16:00 +15°C° 0 mm 1 m/s 737 mmHg 74%
    17:00 +15°C° 0 mm 1 m/s 737 mmHg 72%
    18:00 +15°C° 0 mm 2 m/s 737 mmHg 71%
    19:00 +14°C° 0 mm 2 m/s 737 mmHg 69%
    20:00 +14°C° 0 mm 2 m/s 736 mmHg 69%
    21:00 +14°C° 0 mm 2 m/s 736 mmHg 68%
    22:00 +14°C° 0 mm 2 m/s 736 mmHg 68%
    23:00 +12°C° 2 mm 3 m/s 736 mmHg 77%

    18 Noiembrie, Luni

    Timp Temperatura Precipitaţii Vânt Presiune Umiditate
    00:00 +12°C° 2 mm 4 m/s 736 mmHg 85%
    01:00 +12°C° 2 mm 5 m/s 736 mmHg 94%
    02:00 +12°C° 1.5 mm 4 m/s 737 mmHg 92%
    03:00 +11°C° 1.5 mm 3 m/s 737 mmHg 91%
    04:00 +12°C° 1.5 mm 2 m/s 737 mmHg 89%
    05:00 +12°C° 0.4 mm 2 m/s 738 mmHg 88%
    06:00 +13°C° 0.4 mm 2 m/s 738 mmHg 88%
    07:00 +13°C° 0.4 mm 2 m/s 738 mmHg 87%
    08:00 +13°C° 0.7 mm 2 m/s 739 mmHg 85%
    09:00 +14°C° 0.7 mm 2 m/s 739 mmHg 82%
    10:00 +14°C° 0.7 mm 3 m/s 740 mmHg 80%
    11:00 +15°C° 0.5 mm 2 m/s 740 mmHg 79%
    12:00 +15°C° 0.5 mm 2 m/s 740 mmHg 77%
    13:00 +16°C° 0.5 mm 2 m/s 740 mmHg 76%
    14:00 +15°C° 0.1 mm 2 m/s 740 mmHg 79%
    15:00 +14°C° 0.1 mm 2 m/s 740 mmHg 82%
    16:00 +14°C° 0.1 mm 1 m/s 740 mmHg 86%
    17:00 +13°C° 0 mm 1 m/s 741 mmHg 85%
    18:00 +13°C° 0 mm 1 m/s 741 mmHg 85%
    19:00 +13°C° 0 mm 1 m/s 741 mmHg 85%
    20:00 +12°C° 0 mm 1 m/s 741 mmHg 83%
    21:00 +12°C° 0 mm 1 m/s 741 mmHg 82%
    22:00 +12°C° 0 mm 1 m/s 741 mmHg 80%
    23:00 +12°C° 0 mm 1 m/s 741 mmHg 80%

    19 Noiembrie, Marţi

    Timp Temperatura Precipitaţii Vânt Presiune Umiditate
    00:00 +12°C° 0 mm 1 m/s 741 mmHg 79%
    01:00 +12°C° 0 mm 1 m/s 741 mmHg 78%
    02:00 +12°C° 0 mm 1 m/s 741 mmHg 79%
    03:00 +12°C° 0 mm 1 m/s 741 mmHg 80%
    04:00 +12°C° 0 mm 1 m/s 741 mmHg 80%
    05:00 +12°C° 0 mm 1 m/s 741 mmHg 82%
    06:00 +12°C° 0 mm 1 m/s 741 mmHg 83%
    07:00 +12°C° 0 mm 1 m/s 741 mmHg 84%
    08:00 +13°C° 0.1 mm 1 m/s 741 mmHg 80%
    09:00 +14°C° 0.1 mm 1 m/s 741 mmHg 76%
    10:00 +16°C° 0.1 mm 1 m/s 741 mmHg 72%
    11:00 +16°C° 0.1 mm 2 m/s 741 mmHg 69%
    12:00 +16°C° 0.1 mm 2 m/s 740 mmHg 66%
    13:00 +17°C° 0.1 mm 2 m/s 740 mmHg 63%
    14:00 +16°C° 0.1 mm 2 m/s 739 mmHg 68%
    15:00 +15°C° 0.1 mm 1 m/s 739 mmHg 72%
    16:00 +14°C° 0.1 mm 1 m/s 739 mmHg 77%
    17:00 +14°C° 0.3 mm 1 m/s 739 mmHg 78%
    18:00 +13°C° 0.3 mm 1 m/s 739 mmHg 80%
    19:00 +13°C° 0.3 mm 1 m/s 739 mmHg 81%
    20:00 +13°C° 0.7 mm 1 m/s 739 mmHg 84%
    21:00 +13°C° 0.7 mm 1 m/s 739 mmHg 87%
    22:00 +13°C° 0.7 mm 1 m/s 739 mmHg 89%
    23:00 +13°C° 2.7 mm 1 m/s 739 mmHg 91%

    20 Noiembrie, Miercuri

    Timp Temperatura Precipitaţii Vânt Presiune Umiditate
    00:00 +13°C° 2.7 mm 2 m/s 738 mmHg 93%
    01:00 +12°C° 2.7 mm 2 m/s 738 mmHg 95%
    02:00 +12°C° 2 mm 2 m/s 738 mmHg 94%
    03:00 +12°C° 2 mm 2 m/s 738 mmHg 94%
    04:00 +12°C° 2 mm 2 m/s 738 mmHg 93%
    05:00 +12°C° 0.8 mm 2 m/s 739 mmHg 93%
    06:00 +12°C° 0.8 mm 2 m/s 739 mmHg 93%
    07:00 +12°C° 0.8 mm 1 m/s 739 mmHg 94%
    08:00 +13°C° 0.4 mm 1 m/s 740 mmHg 90%
    09:00 +14°C° 0.4 mm 1 m/s 740 mmHg 87%
    10:00 +14°C° 0.4 mm 2 m/s 740 mmHg 83%
    11:00 +15°C° 0.5 mm 2 m/s 740 mmHg 81%
    12:00 +15°C° 0.5 mm 1 m/s 740 mmHg 80%
    13:00 +15°C° 0.5 mm 1 m/s 740 mmHg 78%
    14:00 +15°C° 0.2 mm 1 m/s 740 mmHg 80%
    15:00 +14°C° 0.2 mm 1 m/s 740 mmHg 83%
    16:00 +14°C° 0.2 mm 1 m/s 740 mmHg 85%
    17:00 +13°C° 0 mm 1 m/s 740 mmHg 85%
    18:00 +13°C° 0 mm 1 m/s 741 mmHg 84%
    19:00 +13°C° 0 mm 1 m/s 741 mmHg 83%
    20:00 +12°C° 0 mm 1 m/s 741 mmHg 83%
    21:00 +12°C° 0 mm 1 m/s 741 mmHg 82%
    22:00 +12°C° 0 mm 1 m/s 741 mmHg 82%
    23:00 +12°C° 0 mm 1 m/s 741 mmHg 82%
    Arată mai mult